(208711) = 2002 JG74

Discovered at Socorro on 2002-05-08 by LINEAR.

Orbit

Orbit type: Phocaea

Note: WebGL enabled browser required.

epoch2023-09-13.0
epoch JD2460200.5
perihelion date2023-09-13.55080
perihelion JD2460201.05080
argument of perihelion (°)173.51337
ascending node (°)82.60436
inclination (°)24.78020
eccentricity0.2099027
perihelion distance (AU)1.8380633
Tisserand w.r.t. Jupiter3.4
ΔV w.r.t. Earth (km/sec)11.3
semimajor axis (AU)2.3263759
mean anomaly (°)359.84700
mean daily motion (°/day)0.27776920
aphelion distance (AU)2.815
period (years)3.55
P-vector [x]-0.22961211
P-vector [y]-0.91074660
P-vector [z]-0.34324761
Q-vector [x]0.88006366
Q-vector [y]-0.04366841
Q-vector [z]-0.47284355
absolute magnitude16.0
phase slope0.15
uncertainty0
referenceMPEC 2023-N24
observations used643
oppositions16
arc length (days)7760
first opposition used2002
last opposition used2023
residual rms (arc-secs)0.77
perturbers coarse indicatorM-v
perturbers precise indicator003Ek
first observation date used2002-04-08.0
last observation date used2023-07-07.0
computer nameMPCLINUX
JD of orbit computation2456670.818437
perihelion JD uncertainty (days)7.1519E-05
argument of perihelion uncertainty (°)2.4147E-05
ascending node uncertainty (°)1.5095E-05
inclination uncertainty (°)9.1588E-06
eccentricity uncertainty 9.4780E-08
perihelion distance uncertainty (AU)2.2829E-07
Minimum Orbit Intersection Distances (in AU)
for orbit epoch: 2460000.5, reference: E2023-N24
Mercury1.37421
Venus1.11259
Earth0.82354
Mars0.36511
Jupiter2.26121
Saturn6.2527
Uranus16.112
Neptune27.1611

Observations

675 total observations over interval: 2002 04 08.40380 – 2023 07 07.168145
These data are available for download (format description).

Date (UT) J2000 RA J2000 Dec Magn Location Ref
2002 04 08.40380 17 43 32.06 -05 12 46.1 19.4   704 – Lincoln Laboratory ETS, New Mexico MPS 57716
2002 04 08.41642 17 43 32.62 -05 12 50.4 19.8   704 – Lincoln Laboratory ETS, New Mexico MPS 57716
2002 04 08.42890 17 43 33.21 -05 12 55.4 19.8   704 – Lincoln Laboratory ETS, New Mexico MPS 57716
2002 04 08.44059 17 43 33.82 -05 12 59.8 19.5   704 – Lincoln Laboratory ETS, New Mexico MPS 57716
2002 04 16.39484 17 49 15.12 -06 05 49.2 18.8   704 – Lincoln Laboratory ETS, New Mexico MPS 57716
2002 04 16.40841 17 49 15.55 -06 05 55.3 19.3   704 – Lincoln Laboratory ETS, New Mexico MPS 57716
2002 04 16.42212 17 49 16.02 -06 06 01.7 19.1   704 – Lincoln Laboratory ETS, New Mexico MPS 57716
2002 05 08.38711 17 53 31.64 -09 55 48.2 18.2   704 – Lincoln Laboratory ETS, New Mexico MPS 55425
2002 05 08.39912 17 53 31.29 -09 55 58.7 19.3   704 – Lincoln Laboratory ETS, New Mexico MPS 55425
2002 05 08.41112 17 53 31.18 -09 56 09.1 18.6   704 – Lincoln Laboratory ETS, New Mexico MPS 55425
2002 05 08.42308 17 53 31.02 -09 56 19.3 18.3   704 – Lincoln Laboratory ETS, New Mexico MPS 55425
2002 05 08.43504 17 53 30.75 -09 56 28.6 18.5   704 – Lincoln Laboratory ETS, New Mexico MPS 55425
2002 05 13.37769 17 51 46.91 -11 10 21.7 18.0   704 – Lincoln Laboratory ETS, New Mexico MPS 55425
2002 05 13.39232 17 51 46.51 -11 10 36.0 17.9   704 – Lincoln Laboratory ETS, New Mexico MPS 55425
2002 05 13.40702 17 51 46.16 -11 10 50.5 19.1   704 – Lincoln Laboratory ETS, New Mexico MPS 55425
2002 05 13.42220 17 51 45.59 -11 11 04.6 18.0   704 – Lincoln Laboratory ETS, New Mexico MPS 55425
2002 06 08.31101 17 26 58.96 -19 52 31.5 17.1   704 – Lincoln Laboratory ETS, New Mexico MPS 57716
2002 06 08.33940 17 26 56.46 -19 53 11.8 18.0   704 – Lincoln Laboratory ETS, New Mexico MPS 57716
2002 06 08.35398 17 26 55.30 -19 53 31.1 17.9   704 – Lincoln Laboratory ETS, New Mexico MPS 57716
2002 06 08.36776 17 26 54.17 -19 53 50.0 17.8   704 – Lincoln Laboratory ETS, New Mexico MPS 57716
2002 06 10.27384 17 24 18.96 -20 37 53.4 16.1   704 – Lincoln Laboratory ETS, New Mexico MPS 57716
2002 06 10.28422 17 24 18.03 -20 38 07.2 17.5   704 – Lincoln Laboratory ETS, New Mexico MPS 57716
2002 06 10.29459 17 24 17.13 -20 38 21.5 17.4   704 – Lincoln Laboratory ETS, New Mexico MPS 57716
2002 06 10.30490 17 24 16.27 -20 38 35.9 17.5   704 – Lincoln Laboratory ETS, New Mexico MPS 57716
2002 06 10.31524 17 24 15.37 -20 38 50.3 17.3   704 – Lincoln Laboratory ETS, New Mexico MPS 57716
2002 06 11.31999 17 22 52.21 -21 02 06.9 17.9   704 – Lincoln Laboratory ETS, New Mexico MPS 57716
2002 06 11.33363 17 22 51.02 -21 02 26.0 17.6   704 – Lincoln Laboratory ETS, New Mexico MPS 57716
2002 06 11.34732 17 22 49.82 -21 02 44.5 17.8   704 – Lincoln Laboratory ETS, New Mexico MPS 57716
2002 06 17.24905 17 14 34.91 -23 18 55.7 17.7   704 – Lincoln Laboratory ETS, New Mexico MPS 57716
2002 06 17.26283 17 14 33.66 -23 19 14.3 17.7   704 – Lincoln Laboratory ETS, New Mexico MPS 57716
2002 06 17.27661 17 14 32.48 -23 19 33.9 17.7   704 – Lincoln Laboratory ETS, New Mexico MPS 57716
2002 06 17.29040 17 14 31.37 -23 19 51.0 17.9   704 – Lincoln Laboratory ETS, New Mexico MPS 57716
2002 06 17.30420 17 14 30.10 -23 20 10.4 18.0   704 – Lincoln Laboratory ETS, New Mexico MPS 57716
2003 11 18.27131 03 59 58.33 +02 54 10.2 19.5   644 – Palomar Mountain/NEAT MPS 124688
2003 11 18.33454 03 59 53.71 +02 54 20.5 20.0   644 – Palomar Mountain/NEAT MPS 124688
2003 11 18.40683 03 59 48.44 +02 54 33.5 21.0   644 – Palomar Mountain/NEAT MPS 124688
2003 11 23.30160 03 53 57.62 +03 10 30.6 19.6 R 699 – Lowell Observatory-LONEOS MPS 178327
2003 11 23.31480 03 53 56.76 +03 10 34.6   699 – Lowell Observatory-LONEOS MPS 178327
2003 11 23.32804 03 53 55.91 +03 10 36.1   699 – Lowell Observatory-LONEOS MPS 178327
2003 11 23.34119 03 53 54.88 +03 10 38.8   699 – Lowell Observatory-LONEOS MPS 178327
2005 01 16.42610 11 11 06.21 +39 34 22.4 19.1   704 – Lincoln Laboratory ETS, New Mexico MPS 124688
2005 01 16.45225 11 11 06.19 +39 34 47.4 19.2   704 – Lincoln Laboratory ETS, New Mexico MPS 124688
2005 01 16.46904 11 11 06.04 +39 35 03.3 19.0   704 – Lincoln Laboratory ETS, New Mexico MPS 124688
2006 08 03.74957 01 29 36.45 -29 49 14.8 18.7 V E12 – Siding Spring Survey MPS 175419
2006 08 03.75883 01 29 36.70 -29 49 20.7 20.4 V E12 – Siding Spring Survey MPS 175419
2006 08 03.76803 01 29 37.03 -29 49 26.6 19.8 V E12 – Siding Spring Survey MPS 175419
2006 08 03.77704 01 29 37.32 -29 49 33.7 19.9 V E12 – Siding Spring Survey MPS 175419
2006 09 30.60801 00 58 39.90 -38 30 03.4 19.4 V E12 – Siding Spring Survey MPS 182517
2006 09 30.61905 00 58 39.00 -38 30 04.8 19.6 V E12 – Siding Spring Survey MPS 182517
2006 09 30.62993 00 58 38.10 -38 30 03.8 19.3 V E12 – Siding Spring Survey MPS 182517
2006 09 30.64069 00 58 37.30 -38 30 04.7 19.5 V E12 – Siding Spring Survey MPS 182517
2006 10 28.42796 00 28 59.26 -35 53 42.9 19.8 V E12 – Siding Spring Survey MPS 185323
2006 10 28.43665 00 28 58.94 -35 53 37.5 19.3 V E12 – Siding Spring Survey MPS 185323
2007 12 05.27712 06 31 27.69 +27 18 35.2 19.9 V 691 – Steward Observatory, Kitt Peak-Spacewatch MPS 229719
2007 12 05.29478 06 31 26.58 +27 18 44.4 19.9 V 691 – Steward Observatory, Kitt Peak-Spacewatch MPS 229719
2007 12 05.31244 06 31 25.47 +27 18 53.5 20.0 V 691 – Steward Observatory, Kitt Peak-Spacewatch MPS 229719
2009 02 03.50589 15 29 48.44 +07 38 27.3 19.8 V G96 – Mt. Lemmon Survey MPS 272312
2009 02 03.51142 15 29 48.94 +07 38 26.8 19.7 V G96 – Mt. Lemmon Survey MPS 272312
2009 02 03.51686 15 29 49.48 +07 38 26.3 19.9 V G96 – Mt. Lemmon Survey MPS 272312
2009 02 03.52229 15 29 49.99 +07 38 25.7 19.7 V G96 – Mt. Lemmon Survey MPS 272312
2009 02 27.48177 16 03 56.66 +07 31 21.7 19.1 V 703 – Catalina Sky Survey MPS 278571
2009 02 27.48238 16 03 56.80 +07 31 22.9 19.6 V 703 – Catalina Sky Survey MPS 278571
2009 02 27.48984 16 03 57.31 +07 31 23.4 19.5 V 703 – Catalina Sky Survey MPS 278571
2009 02 27.49039 16 03 57.27 +07 31 22.8 19.6 V 703 – Catalina Sky Survey MPS 278571
2009 02 27.49838 16 03 57.96 +07 31 22.9 19.3 V 703 – Catalina Sky Survey MPS 278571
2009 02 27.50569 16 03 58.46 +07 31 24.6 19.6 V 703 – Catalina Sky Survey MPS 278571
2009 02 27.50630 16 03 58.46 +07 31 25.6 19.7 V 703 – Catalina Sky Survey MPS 278571
2009 03 19.36272 16 23 24.60 +07 55 16.2 18.8   704 – Lincoln Laboratory ETS, New Mexico MPS 281168
2009 03 19.37446 16 23 25.23 +07 55 17.0 18.9   704 – Lincoln Laboratory ETS, New Mexico MPS 281168
2009 03 19.38616 16 23 25.70 +07 55 18.5 19.0   704 – Lincoln Laboratory ETS, New Mexico MPS 281168
2009 05 03.34713 16 18 30.02 +06 44 09.8 17.7 V G96 – Mt. Lemmon Survey MPS 286686
2009 05 03.35331 16 18 29.62 +06 44 07.1 17.8 V G96 – Mt. Lemmon Survey MPS 286686
2009 05 03.35936 16 18 29.26 +06 44 04.3 17.8 V G96 – Mt. Lemmon Survey MPS 286686
2009 05 03.36538 16 18 28.87 +06 44 01.5 17.8 V G96 – Mt. Lemmon Survey MPS 286686
2009 05 14.29091 16 05 58.80 +04 51 30.6 17.8 R 683 – Goodricke-Pigott Observatory, Tucson MPS 288603
2009 05 14.30432 16 05 58.02 +04 51 17.2 19.3 R 683 – Goodricke-Pigott Observatory, Tucson MPS 288603
2009 05 15.37691 16 04 34.57 +04 37 20.2 17.6 V 703 – Catalina Sky Survey MPS 286817
2009 05 15.38299 16 04 34.10 +04 37 15.5 17.6 V 703 – Catalina Sky Survey MPS 286817
2009 05 15.38912 16 04 33.60 +04 37 10.5 17.7 V 703 – Catalina Sky Survey MPS 286817
2009 05 15.39521 16 04 33.09 +04 37 05.4 17.6 V 703 – Catalina Sky Survey MPS 286817
2009 05 16.31532 16 03 21.35 +04 24 39.0 17.9 V 691 – Steward Observatory, Kitt Peak-Spacewatch MPS 287330
2009 05 16.33297 16 03 19.90 +04 24 24.1 19.3 V 691 – Steward Observatory, Kitt Peak-Spacewatch MPS 287330
2009 05 16.35060 16 03 18.42 +04 24 09.6 17.8 V 691 – Steward Observatory, Kitt Peak-Spacewatch MPS 287330
2009 05 21.99286 15 55 43.17 +02 59 19.6 17.4   145 – 's-Gravenwezel MPS 287913
2009 05 21.99996 15 55 42.57 +02 59 12.3 17.4   145 – 's-Gravenwezel MPS 287913
2009 05 22.00479 15 55 42.13 +02 59 07.6 17.6   145 – 's-Gravenwezel MPS 287913
2009 05 26.27425 15 49 51.71 +01 45 52.1 17.9 V 691 – Steward Observatory, Kitt Peak-Spacewatch MPS 287913
